Back to catalog

KUIPER-00173

AliveCommunicationsLEO
NORAD 65786·PAYLOAD·🇺🇸 United States

Launched Sep 25, 2025 from Cape Canaveral Space Force Station

Loading…

Next Passes (next 24 hours)

TLE

FreshSource: CelesTrak SupGP

Epoch: Sep 14, 2026, 13:14 UTC

1 65786C 25217AA  26257.55203704  .00005815  00000+0  76149-3 0  2572
2 65786  51.8990 277.9671 0000471  45.3781 192.2777 14.79910961    18

Track KUIPER-00173 in real time with AllMySat

Download on the App Store